EW8409 Weather Reports


Display with metric or nautical units.
time (UTC)temp
F
wind
direction
speed
MPH
gust
MPH
rain 1hr
in
rain 24hr
in
rain mn
in
humidity
%
barometer
mb
20260510060032 49 199 0.0 0.0 0.00 0.15 0.00 94 1007.3
20260510054530 50 199 0.0 0.0 0.00 0.15 0.00 93 1007.0
20260510053048 50 196 0.0 0.0 0.00 0.15 0.00 93 1007.0
20260510051527 50 169 0.0 0.0 0.00 0.15 0.00 92 1006.7
20260510050026 51 188 0.0 1.0 0.00 0.15 0.00 92 1006.8
20260510044525 51 159 0.0 0.0 0.00 0.15 0.00 92 1006.8
20260510043037 51 205 0.0 0.0 0.00 0.15 0.00 93 1006.6
20260510041525 50 164 0.0 0.0 0.00 0.15 0.00 93 1006.6
20260510040031 50 214 0.0 0.0 0.00 0.15 0.00 93 1006.6
20260510034515 51 193 0.0 0.0 0.00 0.15 0.15 93 1006.3
20260510033014 51 220 0.0 0.0 0.00 0.15 0.15 93 1006.0
20260510031518 51 205 0.0 0.0 0.00 0.15 0.15 92 1005.9
20260510030013 51 207 0.0 0.0 0.00 0.15 0.15 92 1005.8
20260510024515 52 188 0.0 0.0 0.00 0.15 0.15 92 1005.8
20260510023011 52 188 0.0 0.0 0.00 0.15 0.15 92 1005.6
20260510021523 52 157 0.0 0.0 0.00 0.15 0.15 92 1005.6
20260510020011 52 148 0.0 0.0 0.04 0.15 0.15 92 1005.1
20260510014511 52 225 0.0 0.0 0.10 0.15 0.15 91 1005.5
20260510013012 52 165 0.0 0.0 0.13 0.15 0.15 92 1005.0
20260510011509 52 205 0.0 3.0 0.15 0.15 0.15 91 1005.0
20260510010009 53 181 0.0 1.0 0.11 0.11 0.11 89 1005.7
20260510004508 54 210 0.0 4.0 0.05 0.05 0.05 87 1005.6
20260510003007 56 115 0.0 2.0 0.02 0.02 0.02 79 1005.0
20260510001509 63 300 0.0 0.0 0.00 0.00 0.00 62 1004.4
20260510000005 63 176 0.0 0.0 0.00 0.00 0.00 59 1003.4
20260509234507 64 192 0.0 0.0 0.00 0.00 0.00 59 1002.9
20260509233005 64 162 0.0 0.0 0.00 0.00 0.00 57 1002.9
20260509231504 65 154 0.0 0.0 0.00 0.00 0.00 55 1003.0
20260509230007 65 172 0.0 0.0 0.00 0.00 0.00 55 1002.8
20260509224504 65 139 0.0 2.0 0.00 0.00 0.00 54 1003.0
20260509223002 66 136 0.0 3.0 0.00 0.00 0.00 54 1003.2
20260509221501 66 194 0.0 5.0 0.00 0.00 0.00 53 1003.2
20260509220006 66 223 0.0 4.0 0.00 0.00 0.00 54 1003.2
20260509214631 67 224 0.0 4.0 0.00 0.00 0.00 52 1003.3
20260509213103 67 193 0.0 6.0 0.00 0.00 0.00 51 1003.1
20260509211558 68 150 0.0 4.0 0.00 0.00 0.00 51 1003.1
20260509210106 69 76 0.0 8.0 0.00 0.00 0.00 50 1002.8
20260509204555 69 129 0.0 7.0 0.00 0.00 0.00 48 1002.9
20260509203102 69 140 0.0 5.0 0.00 0.00 0.00 50 1003.2
20260509201552 68 177 0.0 9.0 0.00 0.00 0.00 51 1003.3
20260509200049 68 143 0.0 3.0 0.00 0.00 0.00 51 1003.7
20260509194550 68 164 0.0 2.0 0.00 0.00 0.00 50 1003.8
20260509193054 68 162 0.0 1.0 0.00 0.00 0.00 52 1003.6
20260509191557 67 119 0.0 3.0 0.00 0.00 0.00 55 1003.9
20260509190050 67 113 0.0 2.0 0.00 0.00 0.00 53 1004.1
20260509184554 68 140 0.0 1.0 0.00 0.00 0.00 54 1004.4
20260509183050 68 115 0.0 3.0 0.00 0.00 0.00 52 1004.6
20260509181538 67 148 0.0 4.0 0.00 0.00 0.00 51 1004.8
20260509180036 67 211 0.0 2.0 0.00 0.00 0.00 53 1005.0
20260509174533 65 169 0.0 2.0 0.00 0.00 0.00 56 1005.0
20260509173033 66 123 0.0 2.0 0.00 0.00 0.00 54 1005.1
20260509171530 65 166 0.0 1.0 0.00 0.00 0.00 59 1005.1
20260509170025 64 103 0.0 3.0 0.00 0.00 0.00 59 1005.4
20260509164522 64 154 0.0 1.0 0.00 0.00 0.00 60 1005.6
20260509163031 63 150 0.0 0.0 0.00 0.00 0.00 65 1005.8
20260509161515 62 125 0.0 0.0 0.00 0.00 0.00 65 1006.2
20260509160013 62 152 0.0 0.0 0.00 0.00 0.00 64 1006.3
20260509154510 61 58 0.0 0.0 0.00 0.00 0.00 64 1006.4
20260509153010 61 203 0.0 0.0 0.00 0.00 0.00 66 1006.4
20260509151504 60 224 0.0 1.0 0.00 0.00 0.00 70 1006.6
20260509150101 59 219 0.0 0.0 0.00 0.00 0.00 70 1006.7
20260509144556 59 222 0.0 0.0 0.00 0.00 0.00 72 1006.8
20260509143054 58 201 0.0 0.0 0.00 0.00 0.00 73 1007.0
20260509141550 57 192 0.0 0.0 0.00 0.00 0.00 75 1007.0
20260509140045 56 85 0.0 0.0 0.00 0.00 0.00 75 1007.2
20260509134541 54 122 0.0 0.0 0.00 0.00 0.00 77 1007.4
20260509133037 53 45 0.0 0.0 0.00 0.00 0.00 78 1007.7
20260509131534 51 160 0.0 0.0 0.00 0.00 0.00 79 1007.8
20260509130037 50 235 0.0 0.0 0.00 0.00 0.00 80 1007.9
20260509124525 48 127 0.0 0.0 0.00 0.06 0.00 81 1008.1
20260509123021 47 132 0.0 0.0 0.00 0.06 0.00 82 1008.0
20260509121524 45 285 0.0 0.0 0.00 0.06 0.00 85 1008.1
20260509120013 43 281 0.0 0.0 0.00 0.06 0.00 89 1008.2
20260509114508 42 281 0.0 0.0 0.00 0.06 0.00 91 1008.2
20260509113005 41 281 0.0 0.0 0.00 0.06 0.00 91 1008.2
20260509111504 40 281 0.0 0.0 0.00 0.06 0.00 92 1008.2
20260509110002 39 281 0.0 0.0 0.00 0.06 0.00 92 1008.2
20260509104508 38 281 0.0 0.0 0.00 0.06 0.00 92 1008.2
20260509103001 38 281 0.0 0.0 0.00 0.06 0.00 92 1008.1
20260509101504 38 281 0.0 0.0 0.00 0.06 0.00 91 1008.1
20260509100106 37 281 0.0 0.0 0.00 0.06 0.00 91 1008.1
20260509094609 37 281 0.0 0.0 0.00 0.06 0.00 91 1008.1
20260509093059 38 281 0.0 0.0 0.00 0.06 0.00 91 1008.1
20260509091606 38 281 0.0 0.0 0.00 0.06 0.00 91 1008.2
20260509090105 38 281 0.0 0.0 0.00 0.06 0.00 91 1008.3
20260509084601 38 282 0.0 0.0 0.00 0.06 0.00 91 1008.3
20260509083101 38 282 0.0 0.0 0.00 0.06 0.00 91 1008.4
20260509081552 38 282 0.0 0.0 0.00 0.06 0.00 91 1008.6
20260509080054 38 282 0.0 0.0 0.00 0.06 0.00 90 1008.7
20260509074553 38 282 0.0 0.0 0.00 0.06 0.00 90 1008.7
20260509073051 38 281 0.0 0.0 0.00 0.06 0.00 90 1008.9
20260509071547 38 282 0.0 0.0 0.00 0.06 0.00 90 1009.0
20260509070044 38 282 0.0 0.0 0.00 0.06 0.00 91 1009.1
20260509064542 38 309 0.0 0.0 0.00 0.06 0.00 90 1009.2
20260509063039 38 309 0.0 0.0 0.00 0.06 0.00 90 1009.5
20260509061537 38 331 0.0 0.0 0.00 0.06 0.00 90 1009.6